Погода в Петровске

Россия / Саратовская область     52°18′50″N   45°23′23″E
темп.,
°C
ветер,
м/с
пор.,
м/с
влажн.,
%
обл.,
%
осадки,
мм/ч
давл.,
гПа
погр.,
м
6 мая, чт
чт601:00+7зюз35775 0.0 101783
04:00+6юз35800 0.0 101772
07:00+7ююз36795 0.0 1018146
10:00+14ююз56569 0.0 1018771
13:00+16ююз564551 0.0 10171747
16:00+17ююз674499 0.0 10161993
19:00+15ю3661100 0.0 1016150
22:00+11ю4970100 0.0 1017149
7 мая, пт
пт701:00+10ю41066100 0.0 1016176
04:00+11ююв51259100 0.0 1016297
07:00+10ююв51265100 0.0 1016322
10:00+14ю6125199 0.0 1016713
13:00+16ююз685089 0.0 1016963
16:00+17юз6854100 0.1 10151433
19:00+12ссз1284100 1.3 1017205
22:00+10ссз3495100 1.6 101897
8 мая, сб
сб801:00+9с22964 0.0 101817
04:00+8в11961 0.0 101810
07:00+10вюв12910 0.0 1018100
10:00+15ю46670 0.0 1017773
13:00+19ю7848100 0.0 10151911
16:00+20ю684390 0.0 10142304
19:00+18ююв6105945 0.0 1013392
22:00+14ююв4116897 0.0 1013202
9 мая, вс
вс901:00+15ююв6156497 0.0 1012429
04:00+13ююв41172100 0.0 1012225
07:00+13ю31079100 0.1 1012343
10:00+13юв2490100 1.9 1013194
13:00+16юв2369100 0.0 1013790
16:00+18ю5854100 0.2 1013839
19:00+15с4669100 0.0 1013113
22:00+11ссв5992100 0.0 1015198
10 мая, пн
пн1001:00+10ссв71194100 0.0 1016306
04:00+10ссв61195100 0.0 1017293
07:00+11ссв71292100 0.1 1018296
10:00+14ссв6878100 0.1 1020399
13:00+17св5767100 0.0 1021639
16:00+20св895831 0.0 10211484
19:00+18св7127173 0.5 1022544
22:00+13св71481100 0.5 1023354